CW4869 Weather Reports


Display with metric or nautical units.
time (UTC)temp
F
wind
direction
speed
MPH
gust
MPH
rain 1hr
in
rain 24hr
in
rain mn
in
humidity
%
barometer
mb
20260505054533 51 44 6.0 12.0 0.00 0.17 0.00 84 997.3
20260505054028 52 11 4.0 12.0 0.00 0.17 0.00 83 997.1
20260505053531 53 58 6.0 12.0 0.00 0.17 0.00 82 996.9
20260505053040 54 44 5.0 11.0 0.00 0.17 0.00 82 996.9
20260505052528 55 27 3.0 9.0 0.00 0.17 0.00 82 996.8
20260505052036 55 46 4.0 11.0 0.00 0.17 0.00 81 996.6
20260505051540 56 28 4.0 13.0 0.00 0.17 0.00 80 996.7
20260505051057 58 44 6.0 13.0 0.00 0.17 0.00 81 996.5
20260505050538 59 304 5.0 12.0 0.00 0.17 0.00 83 996.3
20260505041527 58 223 14.0 18.0 0.17 0.17 0.00 84 995.1
20260505041100 58 213 14.0 24.0 0.17 0.17 0.00 84 994.9
20260505040550 58 220 18.0 24.0 0.17 0.17 0.00 83 994.8
20260505040038 58 223 11.0 33.0 0.17 0.17 0.00 84 994.6
20260505035533 58 224 17.0 36.0 0.16 0.16 0.16 83 994.9
20260505035052 59 230 26.0 42.0 0.15 0.15 0.15 82 995.8
20260505034537 60 250 34.0 42.0 0.13 0.13 0.13 79 996.2
20260505034055 63 314 13.0 26.0 0.02 0.02 0.02 72 996.0
20260505033539 64 262 9.0 43.0 0.00 0.00 0.00 70 995.4
20260505033032 64 274 28.0 43.0 0.00 0.00 0.00 72 995.6
20260505032539 63 220 18.0 23.0 0.00 0.00 0.00 72 994.5
20260505032024 64 216 19.0 22.0 0.00 0.00 0.00 70 994.3
20260505031555 63 198 16.0 21.0 0.00 0.00 0.00 71 994.0
20260505031050 63 204 17.0 20.0 0.00 0.00 0.00 69 994.0
20260505030537 61 188 15.0 19.0 0.00 0.00 0.00 77 993.9
20260505030029 60 195 11.0 12.0 0.00 0.00 0.00 80 994.1
20260505025540 60 212 6.0 8.0 0.00 0.00 0.00 79 993.9
20260505025036 60 207 6.0 9.0 0.00 0.00 0.00 80 993.9
20260505024549 60 212 8.0 10.0 0.00 0.00 0.00 80 994.0
20260505024042 60 211 8.0 11.0 0.00 0.00 0.00 80 994.0
20260505023536 60 213 8.0 12.0 0.00 0.00 0.00 80 994.1
20260505023027 61 207 10.0 12.0 0.00 0.00 0.00 79 994.1
20260505022538 60 205 11.0 12.0 0.00 0.00 0.00 79 994.1
20260505022031 61 204 10.0 13.0 0.00 0.00 0.00 78 994.1
20260505021602 61 204 11.0 15.0 0.00 0.00 0.00 76 994.1
20260505021033 61 204 13.0 15.0 0.00 0.00 0.00 75 994.0
20260505020547 61 204 13.0 14.0 0.00 0.00 0.00 75 994.1
20260505020026 62 205 12.0 15.0 0.00 0.00 0.00 75 994.1
20260505015534 62 205 14.0 15.0 0.00 0.00 0.00 73 994.2
20260505015053 62 197 14.0 16.0 0.00 0.00 0.00 73 994.3
20260505014535 62 199 14.0 17.0 0.00 0.00 0.00 73 994.3
20260505014026 62 203 14.0 17.0 0.00 0.00 0.00 74 994.2
20260505013533 62 192 14.0 17.0 0.00 0.00 0.00 74 994.2
20260505013040 62 200 14.0 15.0 0.00 0.00 0.00 75 994.2
20260505012528 62 197 12.0 17.0 0.00 0.00 0.00 75 994.2
20260505012042 63 195 13.0 17.0 0.00 0.00 0.00 71 994.2
20260505011532 64 212 15.0 19.0 0.00 0.00 0.00 68 994.2
20260505011039 64 212 14.0 19.0 0.00 0.00 0.00 67 994.1
20260505010529 65 212 15.0 19.0 0.00 0.00 0.00 65 994.1
20260505010041 65 220 16.0 21.0 0.00 0.00 0.00 63 994.1
20260505005530 66 222 18.0 23.0 0.00 0.00 0.00 61 994.1
20260505005041 66 223 21.0 26.0 0.00 0.00 0.00 61 994.1
20260505004530 66 227 20.0 25.0 0.00 0.00 0.00 61 994.1
20260505004041 65 227 20.0 25.0 0.00 0.00 0.00 61 994.1
20260505003529 65 227 20.0 27.0 0.00 0.00 0.00 64 994.2
20260505003102 66 230 22.0 28.0 0.00 0.00 0.00 62 994.1
20260505002530 66 230 23.0 28.0 0.00 0.00 0.00 62 994.1
20260505002042 66 230 23.0 29.0 0.00 0.00 0.00 61 994.0
20260505001527 67 231 24.0 31.0 0.00 0.00 0.00 58 993.9
20260505001040 67 229 23.0 31.0 0.00 0.00 0.00 58 993.9
20260505000530 67 224 25.0 29.0 0.00 0.00 0.00 59 993.7
20260505000027 67 228 24.0 32.0 0.00 0.00 0.00 58 993.8
20260504235537 68 231 25.0 32.0 0.00 0.00 0.00 58 993.9
20260504235029 67 228 26.0 32.0 0.00 0.00 0.00 58 993.9
20260504234538 67 225 26.0 32.0 0.00 0.00 0.00 59 993.9
20260504234025 67 226 25.0 29.0 0.00 0.00 0.00 60 994.0
20260504233535 67 233 24.0 31.0 0.00 0.00 0.00 59 994.1
20260504233025 67 234 25.0 33.0 0.00 0.00 0.00 58 994.1
20260504232530 67 226 27.0 34.0 0.00 0.00 0.00 59 994.2
20260504232049 67 236 29.0 34.0 0.00 0.00 0.00 59 994.2
20260504231540 67 229 24.0 29.0 0.00 0.00 0.00 59 994.3
20260504231032 66 235 23.0 27.0 0.00 0.00 0.00 62 994.4
20260504230535 67 231 23.0 27.0 0.00 0.00 0.00 61 994.6
20260504230028 67 232 23.0 27.0 0.00 0.00 0.00 60 994.7
20260504225603 67 238 24.0 28.0 0.00 0.00 0.00 61 994.7
20260504225036 68 231 23.0 29.0 0.00 0.00 0.00 58 994.8
20260504224545 68 234 24.0 30.0 0.00 0.00 0.00 57 994.8
20260504224037 68 235 24.0 30.0 0.00 0.00 0.00 56 994.8
20260504223523 67 234 25.0 28.0 0.00 0.00 0.00 58 994.9
20260504223101 67 228 23.0 28.0 0.00 0.00 0.00 60 995.0
20260504222526 66 235 23.0 27.0 0.00 0.00 0.00 63 995.1
20260504222035 66 232 21.0 24.0 0.00 0.00 0.00 65 995.2
20260504221540 65 236 20.0 23.0 0.00 0.00 0.00 66 995.3
20260504221033 65 241 20.0 24.0 0.00 0.00 0.00 67 995.4
20260504220538 66 242 21.0 25.0 0.00 0.00 0.00 67 995.4
20260504220059 66 239 22.0 26.0 0.00 0.00 0.00 65 995.4
20260504215532 66 245 22.0 28.0 0.00 0.00 0.00 64 995.4
20260504215025 66 239 23.0 28.0 0.00 0.00 0.00 64 995.4
20260504214531 66 241 21.0 24.0 0.00 0.00 0.00 63 995.4
20260504214104 66 233 19.0 22.0 0.00 0.00 0.00 67 995.4
20260504213531 67 240 20.0 26.0 0.00 0.00 0.00 64 995.4
20260504212542 66 233 20.0 25.0 0.00 0.00 0.00 65 995.4
20260504212031 66 235 21.0 25.0 0.00 0.00 0.00 65 995.5
20260504211538 66 246 19.0 23.0 0.00 0.00 0.00 66 995.5
20260504211044 66 246 20.0 23.0 0.00 0.00 0.00 66 995.5
20260504210557 67 238 21.0 24.0 0.00 0.00 0.00 65 995.6
20260504210030 67 245 20.0 24.0 0.00 0.00 0.00 65 995.6
20260504205534 67 243 21.0 25.0 0.00 0.00 0.00 63 995.6
20260504205026 67 240 19.0 26.0 0.00 0.00 0.00 63 995.6
20260504204535 68 241 22.0 26.0 0.00 0.00 0.00 61 995.6
20260504204134 67 238 21.0 28.0 0.00 0.00 0.00 63 995.6
20260504203542 67 243 21.0 28.0 0.00 0.00 0.00 63 995.6
20260504203034 67 237 20.0 26.0 0.00 0.00 0.00 63 995.7
20260504202541 67 239 23.0 29.0 0.00 0.00 0.00 62 995.7
20260504202102 67 239 23.0 29.0 0.00 0.00 0.00 62 995.8
20260504201530 67 237 22.0 30.0 0.00 0.00 0.00 60 995.7
20260504201024 68 238 24.0 31.0 0.00 0.00 0.00 59 995.7
20260504200531 67 231 25.0 31.0 0.00 0.00 0.00 58 995.7
20260504200040 67 232 21.0 30.0 0.00 0.00 0.00 62 995.8
20260504195526 68 235 25.0 30.0 0.00 0.00 0.00 58 995.8
20260504195038 68 227 26.0 29.0 0.00 0.00 0.00 58 995.8
20260504194522 68 238 23.0 29.0 0.00 0.00 0.00 59 995.9
20260504194037 68 235 24.0 29.0 0.00 0.00 0.00 59 996.0
20260504193524 68 230 23.0 28.0 0.00 0.00 0.00 61 996.0
20260504193102 68 239 24.0 28.0 0.00 0.00 0.00 60 996.0
20260504192543 68 236 23.0 27.0 0.00 0.00 0.00 61 996.1
20260504192034 68 234 22.0 28.0 0.00 0.00 0.00 62 996.1
20260504191521 68 240 24.0 30.0 0.00 0.00 0.00 61 996.1
20260504191032 68 241 25.0 33.0 0.00 0.00 0.00 59 996.2
20260504190541 69 233 24.0 33.0 0.00 0.00 0.00 59 996.3
20260504185600 69 237 24.0 30.0 0.00 0.00 0.00 58 996.2
20260504185030 69 232 25.0 30.0 0.00 0.00 0.00 56 996.2
20260504184538 69 228 26.0 30.0 0.00 0.00 0.00 56 996.2
20260504184053 69 233 23.0 32.0 0.00 0.00 0.00 58 996.2
20260504183539 68 229 28.0 32.0 0.00 0.00 0.00 56 996.3
20260504183028 68 228 25.0 34.0 0.00 0.00 0.00 59 996.4
20260504182532 68 231 28.0 34.0 0.00 0.00 0.00 61 996.4
20260504182026 68 234 25.0 32.0 0.00 0.00 0.00 61 996.5
20260504181533 67 235 24.0 31.0 0.00 0.00 0.00 60 996.6
20260504181025 67 230 21.0 31.0 0.00 0.00 0.00 65 996.8
20260504180533 67 235 21.0 29.0 0.00 0.00 0.00 64 996.9
20260504180025 67 231 21.0 29.0 0.00 0.00 0.00 65 997.0
20260504175559 67 229 23.0 27.0 0.00 0.00 0.00 61 997.0
20260504175045 67 231 21.0 27.0 0.00 0.00 0.00 64 997.1
20260504174522 66 223 19.0 25.0 0.00 0.00 0.00 65 997.2
20260504174031 67 224 21.0 25.0 0.00 0.00 0.00 64 997.2
20260504173535 66 228 21.0 26.0 0.00 0.00 0.00 63 997.3
20260504173100 67 233 21.0 26.0 0.00 0.00 0.00 62 997.4
20260504172549 66 229 21.0 26.0 0.00 0.00 0.00 63 997.4
20260504172041 66 225 21.0 27.0 0.00 0.00 0.00 64 997.5
20260504171029 66 231 22.0 28.0 0.00 0.00 0.00 64 997.6
20260504170541 66 220 23.0 28.0 0.00 0.00 0.00 62 997.5
20260504151026 60 224 21.0 25.0 0.00 0.00 0.00 74 999.4
20260504150532 59 228 19.0 23.0 0.00 0.00 0.00 76 999.4
20260504141040 57 226 22.0 28.0 0.00 0.00 0.00 79 999.8
20260504140549 57 231 24.0 28.0 0.00 0.00 0.00 78 999.8
20260504140104 57 229 22.0 28.0 0.00 0.00 0.00 79 999.8
20260504130532 55 225 20.0 26.0 0.00 0.00 0.00 80 1000.1
20260504110537 51 218 13.0 15.0 0.00 0.00 0.00 85 1000.5
20260504100531 52 230 14.0 17.0 0.00 0.00 0.00 84 1000.8
20260504081534 52 222 14.0 19.0 0.00 0.00 0.00 81 1001.5
20260504081028 52 222 15.0 21.0 0.00 0.00 0.00 81 1001.4
20260504080537 52 222 16.0 21.0 0.00 0.00 0.00 81 1001.3